SWA1927 KMDW-KDEN

Flight info

Callsign SWA1927
Flight time 2h 5m
Altitude 38000
Route PEKUE OBENE OGALE OBH BRWRY LAWGR4
Aircraft B737/M-SDE2E3GIJ4RWZ/LB1D1

Departure

Time 2026-05-04 02:46
Airport Chicago Midway International Airport (KMDW)

Arrival

Time 2026-05-04 04:51
Airport Denver International Airport (KDEN)
Time Latitude Longitude Altitude Speed Heading
2026-05-04 02:20 41.78865 -87.74399 628 ft 0 kts 142°
2026-05-04 02:40 41.78880 -87.74415 636 ft 4 kts 139°
2026-05-04 02:40 41.78897 -87.74435 635 ft 2 kts 136°
2026-05-04 02:40 41.78909 -87.74457 637 ft 2 kts 131°
2026-05-04 02:40 41.78909 -87.74458 636 ft 1 kts 131°
2026-05-04 02:43 41.78909 -87.74457 636 ft 1 kts 130°
2026-05-04 02:43 41.78910 -87.74447 631 ft 1 kts 70°
2026-05-04 02:43 41.78930 -87.74436 628 ft 6 kts 22°
2026-05-04 02:44 41.78983 -87.74415 631 ft 8 kts 14°
2026-05-04 02:44 41.79027 -87.74366 633 ft 8 kts 45°
2026-05-04 02:44 41.79067 -87.74313 628 ft 8 kts 43°
2026-05-04 02:44 41.79109 -87.74264 628 ft 8 kts 36°
2026-05-04 02:45 41.79160 -87.74269 628 ft 8 kts 317°
2026-05-04 02:45 41.79174 -87.74337 629 ft 9 kts 230°
2026-05-04 02:45 41.79104 -87.74427 629 ft 36 kts 224°
2026-05-04 02:45 41.78704 -87.74933 630 ft 121 kts 224°
2026-05-04 02:46 41.77936 -87.75916 857 ft 171 kts 223°
2026-05-04 02:46 41.77137 -87.76997 2244 ft 146 kts 228°
2026-05-04 02:46 41.76443 -87.77745 3618 ft 123 kts 223°
2026-05-04 02:46 41.75673 -87.78619 3656 ft 173 kts 231°
2026-05-04 02:47 41.74762 -87.79929 3746 ft 201 kts 231°
2026-05-04 02:47 41.73755 -87.81315 3957 ft 215 kts 230°
2026-05-04 02:47 41.72714 -87.82751 3823 ft 213 kts 230°
2026-05-04 02:47 41.71698 -87.84155 3636 ft 204 kts 230°
2026-05-04 02:48 41.70762 -87.85452 3945 ft 186 kts 231°
2026-05-04 02:48 41.69850 -87.86753 4362 ft 204 kts 232°
2026-05-04 02:48 41.68854 -87.88205 4931 ft 220 kts 230°
2026-05-04 02:48 41.67914 -87.89923 5331 ft 236 kts 253°
2026-05-04 02:49 41.67746 -87.92092 6205 ft 239 kts 276°
2026-05-04 02:49 41.67949 -87.94332 7102 ft 248 kts 278°
2026-05-04 02:49 41.68236 -87.96638 8008 ft 255 kts 281°
2026-05-04 02:49 41.68569 -87.98999 8961 ft 261 kts 282°
2026-05-04 02:50 41.68912 -88.01403 9927 ft 265 kts 282°
2026-05-04 02:50 41.69265 -88.03874 10654 ft 279 kts 282°
2026-05-04 02:50 41.69651 -88.06562 10876 ft 308 kts 282°
2026-05-04 02:50 41.70066 -88.09487 11214 ft 330 kts 282°
2026-05-04 02:51 41.70494 -88.12540 12010 ft 337 kts 282°
2026-05-04 02:51 41.70921 -88.15634 12965 ft 339 kts 282°
2026-05-04 02:51 41.71350 -88.18751 13875 ft 342 kts 282°
2026-05-04 02:51 41.71782 -88.21897 14678 ft 345 kts 282°
2026-05-04 02:52 41.72216 -88.25072 15483 ft 349 kts 282°
2026-05-04 02:52 41.72656 -88.28284 16253 ft 352 kts 282°
2026-05-04 02:52 41.73097 -88.31522 17068 ft 355 kts 282°
2026-05-04 02:52 41.73543 -88.34791 17847 ft 359 kts 282°
2026-05-04 02:53 41.73993 -88.38099 18542 ft 363 kts 282°
2026-05-04 02:53 41.74446 -88.41447 19179 ft 367 kts 282°
2026-05-04 02:53 41.74904 -88.44833 19806 ft 372 kts 282°
2026-05-04 02:53 41.75366 -88.48254 20431 ft 376 kts 282°
2026-05-04 02:54 41.75833 -88.51724 21050 ft 380 kts 282°
2026-05-04 02:54 41.76304 -88.55230 21648 ft 385 kts 283°
2026-05-04 02:54 41.76778 -88.58774 22241 ft 389 kts 283°
2026-05-04 02:54 41.77258 -88.62362 22822 ft 393 kts 283°
2026-05-04 02:55 41.78229 -88.69663 23839 ft 402 kts 282°
2026-05-04 02:55 41.78719 -88.73360 24345 ft 405 kts 283°
2026-05-04 02:55 41.79205 -88.77034 24849 ft 407 kts 282°
2026-05-04 02:56 41.79689 -88.80784 25320 ft 410 kts 281°
2026-05-04 02:56 41.79994 -88.84605 25774 ft 414 kts 278°
2026-05-04 02:56 41.80231 -88.88469 26237 ft 416 kts 277°
2026-05-04 02:56 41.80452 -88.92341 26685 ft 419 kts 277°
2026-05-04 02:57 41.80673 -88.96245 27121 ft 421 kts 277°
2026-05-04 02:57 41.80898 -89.00176 27559 ft 423 kts 277°
2026-05-04 02:57 41.81128 -89.04114 27980 ft 425 kts 277°
2026-05-04 02:57 41.81363 -89.08083 28369 ft 428 kts 277°
2026-05-04 02:58 41.81599 -89.12073 28758 ft 430 kts 277°
2026-05-04 02:58 41.81837 -89.16088 29164 ft 432 kts 277°
2026-05-04 02:58 41.82073 -89.20098 29653 ft 431 kts 277°
2026-05-04 02:58 41.82307 -89.24095 30211 ft 428 kts 277°
2026-05-04 02:59 41.82536 -89.28049 30775 ft 424 kts 277°
2026-05-04 02:59 41.82759 -89.31924 31269 ft 421 kts 277°
2026-05-04 02:59 41.82984 -89.35836 31710 ft 420 kts 277°
2026-05-04 02:59 41.83206 -89.39724 32143 ft 418 kts 277°
2026-05-04 03:00 41.83427 -89.43606 32597 ft 416 kts 277°
2026-05-04 03:00 41.83645 -89.47464 33047 ft 414 kts 277°
2026-05-04 03:00 41.83861 -89.51314 33481 ft 412 kts 277°
2026-05-04 03:00 41.84074 -89.55143 33882 ft 411 kts 277°
2026-05-04 03:01 41.84286 -89.58962 34200 ft 410 kts 277°
2026-05-04 03:01 41.84497 -89.62774 34447 ft 411 kts 277°
2026-05-04 03:01 41.84708 -89.66608 34696 ft 412 kts 277°
2026-05-04 03:01 41.84902 -89.70435 34961 ft 412 kts 275°
2026-05-04 03:02 41.84906 -89.72991 35143 ft 414 kts 271°
2026-05-04 03:02 41.84592 -89.76852 35411 ft 417 kts 266°
2026-05-04 03:02 41.84189 -89.80701 35652 ft 417 kts 266°
2026-05-04 03:02 41.83771 -89.84550 35893 ft 418 kts 265°
2026-05-04 03:03 41.83351 -89.88405 36143 ft 418 kts 265°
2026-05-04 03:03 41.82935 -89.92256 36408 ft 418 kts 266°
2026-05-04 03:03 41.82523 -89.96119 36655 ft 417 kts 266°
2026-05-04 03:03 41.82116 -89.99968 36891 ft 417 kts 266°
2026-05-04 03:04 41.81710 -90.03825 37176 ft 417 kts 266°
2026-05-04 03:04 41.81306 -90.07664 37426 ft 417 kts 266°
2026-05-04 03:04 41.80900 -90.11513 37665 ft 417 kts 265°
2026-05-04 03:04 41.80500 -90.15314 37834 ft 418 kts 265°
2026-05-04 03:05 41.80091 -90.19191 37811 ft 420 kts 265°
2026-05-04 03:05 41.79265 -90.26957 37833 ft 417 kts 265°
2026-05-04 03:06 41.78449 -90.34568 37818 ft 414 kts 265°
2026-05-04 03:06 41.77627 -90.42193 37817 ft 413 kts 265°
2026-05-04 03:07 41.76803 -90.49782 37811 ft 411 kts 265°
2026-05-04 03:07 41.75977 -90.57355 37819 ft 410 kts 265°
2026-05-04 03:08 41.75147 -90.64915 37822 ft 411 kts 265°
2026-05-04 03:08 41.74307 -90.72518 37817 ft 413 kts 265°
2026-05-04 03:09 41.73455 -90.80190 37817 ft 415 kts 265°
2026-05-04 03:09 41.72599 -90.87848 37815 ft 416 kts 265°
2026-05-04 03:10 41.71735 -90.95522 37813 ft 418 kts 265°
2026-05-04 03:10 41.70862 -91.03222 37804 ft 419 kts 265°
2026-05-04 03:11 41.69983 -91.10926 37812 ft 419 kts 265°
2026-05-04 03:11 41.69105 -91.18578 37822 ft 418 kts 265°
2026-05-04 03:12 41.68220 -91.26261 37825 ft 418 kts 265°
2026-05-04 03:12 41.67326 -91.33956 37832 ft 417 kts 265°
2026-05-04 03:13 41.66429 -91.41623 37839 ft 416 kts 265°
2026-05-04 03:13 41.65533 -91.49260 37842 ft 416 kts 264°
2026-05-04 03:14 41.64630 -91.56895 37841 ft 415 kts 264°
2026-05-04 03:14 41.63725 -91.64507 37837 ft 415 kts 264°
2026-05-04 03:15 41.62815 -91.72114 37841 ft 414 kts 264°
2026-05-04 03:15 41.61903 -91.79702 37837 ft 414 kts 264°
2026-05-04 03:16 41.60985 -91.87294 37828 ft 414 kts 264°
2026-05-04 03:16 41.60062 -91.94885 37828 ft 414 kts 264°
2026-05-04 03:17 41.59133 -92.02488 37819 ft 414 kts 264°
2026-05-04 03:17 41.58202 -92.10046 37827 ft 415 kts 264°
2026-05-04 03:18 41.57260 -92.17652 37825 ft 415 kts 264°
2026-05-04 03:18 41.56314 -92.25263 37818 ft 416 kts 264°
2026-05-04 03:19 41.55361 -92.32879 37825 ft 416 kts 264°
2026-05-04 03:19 41.54404 -92.40490 37832 ft 415 kts 264°
2026-05-04 03:20 41.53442 -92.48090 37830 ft 415 kts 264°
2026-05-04 03:20 41.52475 -92.55695 37840 ft 415 kts 264°
2026-05-04 03:21 41.51505 -92.63277 37845 ft 415 kts 264°
2026-05-04 03:21 41.50530 -92.70864 37847 ft 414 kts 264°
2026-05-04 03:22 41.49552 -92.78426 37845 ft 414 kts 264°
2026-05-04 03:22 41.48568 -92.85987 37847 ft 413 kts 264°
2026-05-04 03:23 41.47582 -92.93537 37851 ft 413 kts 264°
2026-05-04 03:23 41.46592 -93.01077 37854 ft 412 kts 264°
2026-05-04 03:24 41.45599 -93.08600 37845 ft 412 kts 264°
2026-05-04 03:24 41.44600 -93.16127 37848 ft 412 kts 263°
2026-05-04 03:25 41.43596 -93.23651 37846 ft 412 kts 263°
2026-05-04 03:25 41.42589 -93.31162 37849 ft 412 kts 263°
2026-05-04 03:26 41.41582 -93.38636 37839 ft 412 kts 263°
2026-05-04 03:26 41.40569 -93.46145 37845 ft 411 kts 264°
2026-05-04 03:27 41.40315 -93.53686 37858 ft 406 kts 274°
2026-05-04 03:27 41.40457 -93.61214 37856 ft 406 kts 274°
2026-05-04 03:28 41.40587 -93.68731 37843 ft 406 kts 274°
2026-05-04 03:28 41.40699 -93.76257 37853 ft 406 kts 274°
2026-05-04 03:29 41.40798 -93.83784 37845 ft 406 kts 274°
2026-05-04 03:29 41.40889 -93.91301 37845 ft 406 kts 274°
2026-05-04 03:30 41.40975 -93.98835 37841 ft 406 kts 274°
2026-05-04 03:30 41.41056 -94.06356 37842 ft 406 kts 274°
2026-05-04 03:31 41.41133 -94.13884 37832 ft 406 kts 273°
2026-05-04 03:31 41.41205 -94.21346 37841 ft 406 kts 273°
2026-05-04 03:32 41.41272 -94.28910 37840 ft 405 kts 273°
2026-05-04 03:32 41.41333 -94.36425 37843 ft 405 kts 273°
2026-05-04 03:33 41.41391 -94.43920 37840 ft 405 kts 273°
2026-05-04 03:33 41.41444 -94.51430 37837 ft 405 kts 273°
2026-05-04 03:34 41.41491 -94.58936 37840 ft 405 kts 273°
2026-05-04 03:34 41.41533 -94.66450 37842 ft 406 kts 273°
2026-05-04 03:35 41.41570 -94.73975 37842 ft 406 kts 273°
2026-05-04 03:35 41.41603 -94.81487 37842 ft 406 kts 273°
2026-05-04 03:36 41.41630 -94.88970 37844 ft 406 kts 273°
2026-05-04 03:36 41.41652 -94.96485 37847 ft 406 kts 273°
2026-05-04 03:37 41.41672 -95.04009 37839 ft 406 kts 273°
2026-05-04 03:37 41.41685 -95.11535 37844 ft 406 kts 273°
2026-05-04 03:38 41.41693 -95.19097 37844 ft 406 kts 273°
2026-05-04 03:38 41.41696 -95.26573 37850 ft 406 kts 273°
2026-05-04 03:39 41.41694 -95.34103 37846 ft 406 kts 273°
2026-05-04 03:39 41.41687 -95.41624 37844 ft 406 kts 273°
2026-05-04 03:40 41.41676 -95.49127 37843 ft 405 kts 273°
2026-05-04 03:40 41.41659 -95.56645 37839 ft 405 kts 272°
2026-05-04 03:41 41.41638 -95.64150 37837 ft 405 kts 272°
2026-05-04 03:41 41.41612 -95.71663 37832 ft 405 kts 272°
2026-05-04 03:42 41.41581 -95.79171 37847 ft 406 kts 272°
2026-05-04 03:42 41.41552 -95.85418 37843 ft 406 kts 272°
2026-05-04 03:43 41.41505 -95.94152 37847 ft 405 kts 272°
2026-05-04 03:43 41.41467 -96.00434 37856 ft 405 kts 272°
2026-05-04 03:44 41.41418 -96.07936 37851 ft 405 kts 272°
2026-05-04 03:44 41.41363 -96.15448 37850 ft 406 kts 272°
2026-05-04 03:45 41.41304 -96.22960 37846 ft 406 kts 272°
2026-05-04 03:45 41.41238 -96.30475 37847 ft 405 kts 272°
2026-05-04 03:46 41.41169 -96.37973 37845 ft 404 kts 272°
2026-05-04 03:46 41.41096 -96.45468 37852 ft 404 kts 272°
2026-05-04 03:47 41.41018 -96.52912 37847 ft 404 kts 272°
2026-05-04 03:47 41.40934 -96.60454 37855 ft 405 kts 272°
2026-05-04 03:48 41.40847 -96.67893 37848 ft 405 kts 272°
2026-05-04 03:48 41.40754 -96.75402 37846 ft 405 kts 272°
2026-05-04 03:49 41.40655 -96.82907 37841 ft 405 kts 272°
2026-05-04 03:49 41.40550 -96.90422 37852 ft 406 kts 272°
2026-05-04 03:50 41.40442 -96.97956 37849 ft 406 kts 272°
2026-05-04 03:50 41.40328 -97.05482 37862 ft 406 kts 272°
2026-05-04 03:51 41.40210 -97.13010 37858 ft 406 kts 272°
2026-05-04 03:51 41.40087 -97.20485 37864 ft 406 kts 272°
2026-05-04 03:52 41.39959 -97.28057 37864 ft 406 kts 271°
2026-05-04 03:52 41.39827 -97.35531 37867 ft 406 kts 271°
2026-05-04 03:53 41.39689 -97.43057 37860 ft 406 kts 271°
2026-05-04 03:53 41.39547 -97.50574 37855 ft 406 kts 271°
2026-05-04 03:54 41.39400 -97.58107 37854 ft 407 kts 271°
2026-05-04 03:54 41.39246 -97.65659 37851 ft 408 kts 271°
2026-05-04 03:55 41.39089 -97.73218 37847 ft 409 kts 271°
2026-05-04 03:55 41.38925 -97.80794 37846 ft 409 kts 271°
2026-05-04 03:56 41.38755 -97.88376 37845 ft 410 kts 271°
2026-05-04 03:56 41.38583 -97.95921 37849 ft 410 kts 271°
2026-05-04 03:57 41.38404 -98.03516 37838 ft 410 kts 271°
2026-05-04 03:57 41.38220 -98.11106 37844 ft 411 kts 271°
2026-05-04 03:58 41.37935 -98.22528 37836 ft 411 kts 271°
2026-05-04 03:58 41.37739 -98.30126 37840 ft 411 kts 271°
2026-05-04 03:59 41.37091 -98.37696 37834 ft 416 kts 259°
2026-05-04 03:59 41.35311 -98.45070 37828 ft 418 kts 256°
2026-05-04 04:00 41.33463 -98.52411 37830 ft 418 kts 256°
2026-05-04 04:00 41.31635 -98.59739 37827 ft 417 kts 256°
2026-05-04 04:01 41.29819 -98.67070 37827 ft 417 kts 256°
2026-05-04 04:01 41.28008 -98.74384 37819 ft 417 kts 256°
2026-05-04 04:02 41.26192 -98.81701 37835 ft 417 kts 256°
2026-05-04 04:02 41.24371 -98.89016 37823 ft 417 kts 256°
2026-05-04 04:03 41.22545 -98.96332 37820 ft 417 kts 256°
2026-05-04 04:03 41.20712 -99.03646 37828 ft 417 kts 256°
2026-05-04 04:04 41.18887 -99.10908 37826 ft 417 kts 256°
2026-05-04 04:04 41.17043 -99.18224 37825 ft 417 kts 256°
2026-05-04 04:05 41.15197 -99.25526 37826 ft 417 kts 256°
2026-05-04 04:05 41.13348 -99.32816 37828 ft 417 kts 256°
2026-05-04 04:06 41.11493 -99.40104 37825 ft 417 kts 256°
2026-05-04 04:06 41.09636 -99.47383 37821 ft 416 kts 256°
2026-05-04 04:07 41.07778 -99.54642 37823 ft 416 kts 256°
2026-05-04 04:07 41.05913 -99.61904 37831 ft 415 kts 256°
2026-05-04 04:08 41.04050 -99.69147 37838 ft 415 kts 255°
2026-05-04 04:08 41.02182 -99.76372 37839 ft 414 kts 255°
2026-05-04 04:09 41.00312 -99.83590 37837 ft 414 kts 255°
2026-05-04 04:09 40.98438 -99.90800 37840 ft 414 kts 255°
2026-05-04 04:10 40.96562 -99.98003 37840 ft 414 kts 255°
2026-05-04 04:10 40.94679 -100.05205 37834 ft 414 kts 255°
2026-05-04 04:11 40.92793 -100.12402 37823 ft 414 kts 255°
2026-05-04 04:11 40.90902 -100.19596 37816 ft 414 kts 255°
2026-05-04 04:12 40.89003 -100.26799 37815 ft 415 kts 255°
2026-05-04 04:12 40.87100 -100.33997 37811 ft 415 kts 255°
2026-05-04 04:13 40.85189 -100.41202 37821 ft 416 kts 255°
2026-05-04 04:13 40.83272 -100.48410 37824 ft 417 kts 255°
2026-05-04 04:14 40.81345 -100.55639 37816 ft 417 kts 255°
2026-05-04 04:14 40.79427 -100.62814 37823 ft 417 kts 255°
2026-05-04 04:15 40.77721 -100.70110 37824 ft 414 kts 261°
2026-05-04 04:15 40.76537 -100.77531 37809 ft 413 kts 262°
2026-05-04 04:16 40.75361 -100.84960 37815 ft 414 kts 261°
2026-05-04 04:16 40.74114 -100.92412 37819 ft 414 kts 261°
2026-05-04 04:17 40.72856 -100.99768 37810 ft 414 kts 261°
2026-05-04 04:17 40.71585 -101.07174 37810 ft 414 kts 261°
2026-05-04 04:18 40.70307 -101.14584 37821 ft 414 kts 261°
2026-05-04 04:18 40.69016 -101.21970 37826 ft 414 kts 261°
2026-05-04 04:19 40.67720 -101.29353 37840 ft 414 kts 261°
2026-05-04 04:19 40.66418 -101.36745 37853 ft 414 kts 261°
2026-05-04 04:20 40.65113 -101.44134 37862 ft 414 kts 261°
2026-05-04 04:20 40.63803 -101.51524 37875 ft 414 kts 261°
2026-05-04 04:21 40.62488 -101.58907 37883 ft 414 kts 261°
2026-05-04 04:21 40.61167 -101.66290 37878 ft 414 kts 261°
2026-05-04 04:22 40.59843 -101.73671 37882 ft 414 kts 261°
2026-05-04 04:22 40.58515 -101.81045 37875 ft 414 kts 261°
2026-05-04 04:23 40.57180 -101.88431 37860 ft 414 kts 261°
2026-05-04 04:23 40.55852 -101.95760 37840 ft 415 kts 261°
2026-05-04 04:24 40.54500 -102.03131 37826 ft 415 kts 261°
2026-05-04 04:24 40.53351 -102.09313 37823 ft 415 kts 261°
2026-05-04 04:25 40.51975 -102.16700 37816 ft 416 kts 261°
2026-05-04 04:25 40.50600 -102.24059 37488 ft 422 kts 260°
2026-05-04 04:26 40.49901 -102.27810 36929 ft 422 kts 260°
2026-05-04 04:26 40.49201 -102.31545 36267 ft 420 kts 260°
2026-05-04 04:26 40.48492 -102.35315 35554 ft 419 kts 260°
2026-05-04 04:26 40.47790 -102.39039 34783 ft 421 kts 260°
2026-05-04 04:27 40.47094 -102.42733 34009 ft 422 kts 260°
2026-05-04 04:27 40.46387 -102.46479 33102 ft 424 kts 260°
2026-05-04 04:27 40.45672 -102.50260 32177 ft 426 kts 259°
2026-05-04 04:27 40.44957 -102.54029 31463 ft 424 kts 259°
2026-05-04 04:28 40.44247 -102.57760 30840 ft 419 kts 259°
2026-05-04 04:28 40.43545 -102.61452 30239 ft 415 kts 259°
2026-05-04 04:28 40.42848 -102.65101 29860 ft 406 kts 259°
2026-05-04 04:28 40.42169 -102.68635 29527 ft 396 kts 259°
2026-05-04 04:29 40.41502 -102.72099 29232 ft 391 kts 259°
2026-05-04 04:29 40.40829 -102.75599 28903 ft 400 kts 259°
2026-05-04 04:29 40.40145 -102.79153 28562 ft 403 kts 259°
2026-05-04 04:29 40.39460 -102.82689 28240 ft 396 kts 259°
2026-05-04 04:30 40.38783 -102.86175 27999 ft 393 kts 259°
2026-05-04 04:30 40.38108 -102.89661 27716 ft 396 kts 259°
2026-05-04 04:30 40.37427 -102.93173 27413 ft 396 kts 259°
2026-05-04 04:30 40.36749 -102.96659 27116 ft 393 kts 259°
2026-05-04 04:31 40.36074 -103.00113 26823 ft 390 kts 259°
2026-05-04 04:31 40.35403 -103.03553 26537 ft 388 kts 259°
2026-05-04 04:31 40.34737 -103.06976 26248 ft 387 kts 259°
2026-05-04 04:31 40.34073 -103.10386 25962 ft 385 kts 259°
2026-05-04 04:32 40.33411 -103.13790 25675 ft 385 kts 259°
2026-05-04 04:32 40.32750 -103.17177 25385 ft 384 kts 259°
2026-05-04 04:32 40.32088 -103.20567 25101 ft 383 kts 258°
2026-05-04 04:32 40.31425 -103.23947 24813 ft 382 kts 258°
2026-05-04 04:33 40.30763 -103.27319 24515 ft 381 kts 258°
2026-05-04 04:33 40.30100 -103.30673 24225 ft 380 kts 258°
2026-05-04 04:33 40.29435 -103.34015 23935 ft 378 kts 258°
2026-05-04 04:33 40.28771 -103.37340 23640 ft 377 kts 258°
2026-05-04 04:34 40.28109 -103.40657 23323 ft 375 kts 258°
2026-05-04 04:34 40.27451 -103.43948 22987 ft 372 kts 258°
2026-05-04 04:34 40.26797 -103.47217 22671 ft 370 kts 258°
2026-05-04 04:34 40.26147 -103.50463 22374 ft 367 kts 258°
2026-05-04 04:35 40.25499 -103.53693 22095 ft 365 kts 258°
2026-05-04 04:35 40.24854 -103.56900 21818 ft 363 kts 258°
2026-05-04 04:35 40.24225 -103.60055 21557 ft 361 kts 258°
2026-05-04 04:35 40.23596 -103.63231 21285 ft 360 kts 258°
2026-05-04 04:36 40.22969 -103.66407 21021 ft 359 kts 258°
2026-05-04 04:36 40.22343 -103.69567 20751 ft 358 kts 258°
2026-05-04 04:36 40.21719 -103.72715 20484 ft 358 kts 258°
2026-05-04 04:36 40.21093 -103.75864 20213 ft 357 kts 258°
2026-05-04 04:37 40.19222 -103.85246 19398 ft 349 kts 257°
2026-05-04 04:37 40.18617 -103.88259 19129 ft 338 kts 257°
2026-05-04 04:38 40.17954 -103.91164 18879 ft 330 kts 250°
2026-05-04 04:38 40.16856 -103.93755 18692 ft 321 kts 242°
2026-05-04 04:38 40.15678 -103.96200 18484 ft 314 kts 241°
2026-05-04 04:38 40.14511 -103.98599 18287 ft 312 kts 241°
2026-05-04 04:39 40.13358 -104.00987 18080 ft 310 kts 241°
2026-05-04 04:39 40.12210 -104.03384 17862 ft 310 kts 241°
2026-05-04 04:39 40.11074 -104.05769 17649 ft 309 kts 241°
2026-05-04 04:39 40.09960 -104.08119 17444 ft 308 kts 241°
2026-05-04 04:40 40.08837 -104.10492 17243 ft 308 kts 241°
2026-05-04 04:40 40.07711 -104.12868 17041 ft 307 kts 241°
2026-05-04 04:40 40.06586 -104.15238 16847 ft 308 kts 241°
2026-05-04 04:40 40.05453 -104.17625 16537 ft 312 kts 241°
2026-05-04 04:41 40.04299 -104.20051 16215 ft 315 kts 241°
2026-05-04 04:41 40.03136 -104.22494 15919 ft 318 kts 241°
2026-05-04 04:41 40.02208 -104.24441 15665 ft 317 kts 240°
2026-05-04 04:41 40.01312 -104.26319 15426 ft 314 kts 240°
2026-05-04 04:42 40.00164 -104.28724 15115 ft 310 kts 240°
2026-05-04 04:42 39.99034 -104.31091 14788 ft 306 kts 240°
2026-05-04 04:42 39.97913 -104.33441 14520 ft 305 kts 240°
2026-05-04 04:42 39.96789 -104.35794 14229 ft 307 kts 240°
2026-05-04 04:43 39.95658 -104.38160 13944 ft 307 kts 240°
2026-05-04 04:43 39.94528 -104.40520 13641 ft 307 kts 240°
2026-05-04 04:43 39.93402 -104.42874 13315 ft 306 kts 240°
2026-05-04 04:43 39.92280 -104.45221 13011 ft 304 kts 240°
2026-05-04 04:44 39.91126 -104.47527 12689 ft 304 kts 232°
2026-05-04 04:44 39.89484 -104.49246 12389 ft 306 kts 208°
2026-05-04 04:44 39.87446 -104.50010 12091 ft 307 kts 186°
2026-05-04 04:44 39.85332 -104.50082 11798 ft 302 kts 182°
2026-05-04 04:45 39.83243 -104.50082 11504 ft 297 kts 182°
2026-05-04 04:45 39.81202 -104.50090 11206 ft 293 kts 182°
2026-05-04 04:45 39.79187 -104.50108 11047 ft 284 kts 182°
2026-05-04 04:47 39.69819 -104.54167 9665 ft 237 kts 249°
2026-05-04 04:47 39.69402 -104.56208 9315 ft 233 kts 264°
2026-05-04 04:47 39.69443 -104.58248 9168 ft 221 kts 279°
2026-05-04 04:47 39.69889 -104.60145 8862 ft 219 kts 294°
2026-05-04 04:48 39.70704 -104.61822 8441 ft 223 kts 308°
2026-05-04 04:49 39.76056 -104.64278 7578 ft 197 kts
2026-05-04 04:49 39.77451 -104.64216 7010 ft 204 kts 358°
2026-05-04 04:49 39.78687 -104.64185 6710 ft 188 kts 357°
2026-05-04 04:49 39.79997 -104.64193 6180 ft 190 kts 357°
2026-05-04 04:50 39.81265 -104.64208 5862 ft 173 kts 356°
2026-05-04 04:50 39.82421 -104.64188 5609 ft 161 kts 358°
2026-05-04 04:50 39.83510 -104.64161 5381 ft 150 kts 358°
2026-05-04 04:50 39.84448 -104.64156 5363 ft 114 kts 359°
2026-05-04 04:51 39.85093 -104.64152 5358 ft 71 kts 360°
2026-05-04 04:51 39.85452 -104.64161 5354 ft 42 kts 348°
2026-05-04 04:51 39.85709 -104.64301 5352 ft 38 kts 333°
2026-05-04 04:51 39.85931 -104.64459 5351 ft 34 kts 330°
2026-05-04 04:52 39.86130 -104.64610 5349 ft 32 kts 329°
2026-05-04 04:52 39.86317 -104.64749 5349 ft 30 kts 331°
2026-05-04 04:52 39.86469 -104.64858 5353 ft 13 kts 325°
2026-05-04 04:52 39.86491 -104.64969 5357 ft 13 kts 267°
2026-05-04 04:53 39.86493 -104.65111 5360 ft 18 kts 271°
2026-05-04 04:53 39.86493 -104.65299 5364 ft 22 kts 271°
2026-05-04 04:53 39.86495 -104.65496 5368 ft 22 kts 270°
2026-05-04 04:53 39.86496 -104.65688 5372 ft 21 kts 270°
2026-05-04 04:54 39.86495 -104.65875 5376 ft 20 kts 268°
2026-05-04 04:54 39.86495 -104.66048 5379 ft 20 kts 274°
2026-05-04 04:54 39.86501 -104.66215 5377 ft 21 kts 271°
2026-05-04 04:54 39.86499 -104.66405 5378 ft 21 kts 268°
2026-05-04 04:55 39.86474 -104.66590 5376 ft 21 kts 248°
2026-05-04 04:55 39.86473 -104.66774 5376 ft 20 kts 277°
2026-05-04 04:55 39.86471 -104.66953 5376 ft 20 kts 266°
2026-05-04 04:55 39.86466 -104.67126 5372 ft 19 kts 269°
2026-05-04 04:56 39.86465 -104.67287 5376 ft 8 kts 269°
2026-05-04 04:56 39.86439 -104.67340 5374 ft 7 kts 220°
2026-05-04 04:56 39.86402 -104.67380 5374 ft 7 kts 209°
2026-05-04 04:56 39.86366 -104.67418 5376 ft 5 kts 222°
2026-05-04 04:57 39.86354 -104.67432 5376 ft 1 kts 222°
2026-05-04 04:57 39.86352 -104.67434 5374 ft 0 kts 222°